Date String (YYYY-MM-DD hh:mm:ss) UTC,Instrument flags,Ambient pressure (hPa),Sample flow (lpm),Bypass flow (lpm),Sample temperature (°C),Ambient temperature (°C),ASC tube jacket temperature (°C),LED temperature (°C),Box temperature (°C),Sample RH (%),Span deviation,Mass concentration (μg/m³),Mass concentration (μg/m³),Mass concentration (μg/m³)
DateTimeUTC,F1_M11,P_M11,Q1_M11,Q2_M11,T1_M11,T2_M11,T3_M11,T4_M11,T5_M11,U1_M11,ZSPAN_M11,X0_M11,X2_M11,X1_M11
2023-02-25 21:00:00,,0822.0,5.01,0.00,22.9,21.6,00.0,31.6,24.7,13.6,0000.0,0002.20,0001.10,0000.61
2023-02-25 21:01:00,,0821.9,5.03,0.00,22.9,21.6,00.0,31.6,24.8,12.9,0000.0,0002.20,0001.11,0000.62
2023-02-25 21:02:00,,0821.8,4.98,0.00,22.9,21.7,00.0,31.6,24.8,12.6,0000.0,0002.26,0001.13,0000.62
2023-02-25 21:03:00,,0821.8,4.99,0.00,22.9,21.7,00.0,31.6,24.8,11.5,0000.0,0002.35,0001.18,0000.62
2023-02-25 21:04:00,,0822.0,4.99,0.00,22.9,21.7,00.0,31.6,24.8,12.8,0000.0,0002.47,0001.23,0000.63
2023-02-25 21:05:00,,0822.0,5.00,0.00,22.9,21.7,00.0,31.6,24.8,13.5,0000.0,0002.52,0001.26,0000.64
2023-02-25 21:06:00,,0822.0,5.00,0.00,22.9,21.7,00.0,31.6,24.8,13.2,0000.0,0002.49,0001.23,0000.63
2023-02-25 21:07:00,,0822.0,5.00,0.00,22.9,21.7,00.0,31.6,24.8,13.8,0000.0,0002.34,0001.17,0000.62
2023-02-25 21:08:00,,0822.0,5.02,0.00,22.9,21.7,00.0,31.6,24.8,13.4,0000.0,0002.40,0001.17,0000.62
2023-02-25 21:09:00,,0821.9,5.01,0.00,22.9,21.7,00.0,31.6,24.8,12.1,0000.0,0002.39,0001.16,0000.62
2023-02-25 21:10:00,,0821.9,5.00,0.00,22.9,21.7,00.0,31.6,24.8,11.6,0000.0,0002.20,0001.15,0000.61
2023-02-25 21:11:00,,0821.8,4.99,0.00,22.9,21.7,00.0,31.7,24.8,12.2,0000.0,0002.24,0001.17,0000.61
2023-02-25 21:12:00,,0821.9,5.00,0.00,22.9,21.7,00.0,31.7,24.9,12.2,0000.0,0002.31,0001.19,0000.60
2023-02-25 21:13:00,,0821.8,5.00,0.00,23.0,21.7,00.0,31.7,24.9,12.7,0000.0,0002.31,0001.19,0000.60
2023-02-25 21:14:00,,0821.8,4.98,0.00,23.0,21.7,00.0,31.7,24.9,13.1,0000.0,0002.39,0001.21,0000.61
2023-02-25 21:15:00,,0821.8,5.01,0.00,23.0,21.7,00.0,31.7,24.9,12.1,0000.0,0002.43,0001.23,0000.62
2023-02-25 21:16:00,,0821.8,5.01,0.00,23.0,21.7,00.0,31.7,24.9,12.3,0000.0,0002.42,0001.22,0000.62
2023-02-25 21:17:00,,0821.8,5.00,0.00,23.0,21.7,00.0,31.7,24.9,11.9,0000.0,0002.56,0001.25,0000.63
2023-02-25 21:18:00,,0821.8,4.99,0.00,23.0,21.7,00.0,31.7,24.9,12.1,0000.0,0002.76,0001.31,0000.66
2023-02-25 21:19:00,,0821.7,5.00,0.00,23.0,21.7,00.0,31.7,24.9,13.0,0000.0,0002.75,0001.34,0000.68
2023-02-25 21:20:00,,0821.7,5.00,0.00,23.0,21.7,00.0,31.7,24.8,11.8,0000.0,0002.79,0001.37,0000.70
2023-02-25 21:21:00,,0821.7,5.02,0.00,23.0,21.7,00.0,31.7,24.8,11.2,0000.0,0002.81,0001.38,0000.71
2023-02-25 21:22:00,,0821.7,5.01,0.00,23.0,21.7,00.0,31.7,24.8,11.4,0000.0,0002.81,0001.38,0000.72
2023-02-25 21:23:00,,0821.8,4.99,0.00,23.0,21.7,00.0,31.7,24.9,11.7,0000.0,0002.75,0001.37,0000.72
2023-02-25 21:24:00,,0821.7,5.00,0.00,23.0,21.7,00.0,31.7,24.8,12.2,0000.0,0002.78,0001.40,0000.73
2023-02-25 21:25:00,,0821.7,4.97,0.00,23.0,21.6,00.0,31.7,24.8,11.6,0000.0,0002.76,0001.40,0000.73
2023-02-25 21:26:00,,0821.6,5.00,0.00,23.0,21.6,00.0,31.7,24.8,12.3,0000.0,0002.78,0001.39,0000.72
2023-02-25 21:27:00,,0821.6,5.00,0.00,23.0,21.7,00.0,31.7,24.9,12.5,0000.0,0002.72,0001.38,0000.72
2023-02-25 21:28:00,,0821.7,5.00,0.00,23.0,21.7,00.0,31.7,24.9,12.8,0000.0,0002.74,0001.39,0000.72
2023-02-25 21:29:00,,0821.7,5.00,0.00,23.0,21.7,00.0,31.7,24.9,13.0,0000.0,0002.56,0001.35,0000.72
2023-02-25 21:30:00,,0821.7,5.00,0.00,23.0,21.7,00.0,31.7,24.9,12.7,0000.0,0002.57,0001.34,0000.72
2023-02-25 21:31:00,,0821.8,5.00,0.00,23.0,21.7,00.0,31.7,24.9,11.7,0000.0,0002.51,0001.32,0000.72
2023-02-25 21:32:00,,0821.8,5.00,0.00,23.0,21.7,00.0,31.7,24.9,12.2,0000.0,0002.47,0001.29,0000.71
2023-02-25 21:33:00,,0821.7,5.01,0.00,23.0,21.8,00.0,31.7,24.9,12.9,0000.0,0002.47,0001.29,0000.72
2023-02-25 21:34:00,,0821.6,5.01,0.00,23.0,21.8,00.0,31.7,24.9,11.9,0000.0,0002.51,0001.30,0000.73
2023-02-25 21:35:00,,0821.7,5.00,0.00,23.0,21.8,00.0,31.7,24.9,12.3,0000.0,0002.44,0001.25,0000.73
2023-02-25 21:36:00,,0821.7,5.00,0.00,23.0,21.8,00.0,31.7,24.9,12.5,0000.0,0002.54,0001.25,0000.73
2023-02-25 21:37:00,,0821.7,4.98,0.00,23.0,21.8,00.0,31.7,24.9,11.9,0000.0,0002.73,0001.22,0000.72
2023-02-25 21:38:00,,0821.7,5.00,0.00,23.0,21.8,00.0,31.7,24.9,12.3,0000.0,0002.76,0001.23,0000.72
2023-02-25 21:39:00,,0821.7,5.00,0.00,23.0,21.8,00.0,31.7,24.9,11.7,0000.0,0002.68,0001.21,0000.72
2023-02-25 21:40:00,,0821.7,5.00,0.00,23.0,21.8,00.0,31.7,24.9,11.1,0000.0,0002.64,0001.22,0000.73
2023-02-25 21:41:00,,0821.7,5.00,0.00,23.0,21.8,00.0,31.7,24.9,11.4,0000.0,0002.50,0001.18,0000.73
2023-02-25 21:42:00,,0821.6,5.00,0.00,23.0,21.8,00.0,31.7,24.9,11.4,0000.0,0002.39,0001.14,0000.72
2023-02-25 21:43:00,,0821.7,5.00,0.00,23.0,21.8,00.0,31.8,24.9,11.8,0000.0,0002.32,0001.12,0000.72
2023-02-25 21:44:00,,0821.7,5.01,0.00,23.0,21.8,00.0,31.8,24.9,12.5,0000.0,0002.26,0001.09,0000.71
2023-02-25 21:45:00,,0821.7,4.98,0.00,23.1,21.8,00.0,31.8,24.9,12.9,0000.0,0002.20,0001.08,0000.70
2023-02-25 21:46:00,,0821.7,4.96,0.00,23.1,21.9,00.0,31.8,24.9,13.0,0000.0,0002.32,0001.12,0000.70
2023-02-25 21:47:00,,0821.7,5.00,0.00,23.1,21.9,00.0,31.8,24.9,13.1,0000.0,0002.16,0001.09,0000.70
2023-02-25 21:48:00,,0821.7,5.02,0.00,23.1,21.9,00.0,31.8,24.9,12.1,0000.0,0001.88,0001.10,0000.71
2023-02-25 21:49:00,,0821.7,5.02,0.00,23.1,21.9,00.0,31.8,24.9,12.0,0000.0,0002.15,0001.10,0000.73
2023-02-25 21:50:00,,0821.7,5.01,0.00,23.1,21.8,00.0,31.8,24.9,11.7,0000.0,0002.73,0001.10,0000.73
2023-02-25 21:51:00,,0821.7,5.00,0.00,23.1,21.8,00.0,31.8,24.9,11.6,0000.0,0002.82,0001.13,0000.73
2023-02-25 21:52:00,,0821.7,5.00,0.00,23.1,21.8,00.0,31.8,25.0,11.4,0000.0,0002.89,0001.17,0000.72
2023-02-25 21:53:00,,0821.7,5.00,0.00,23.1,21.8,00.0,31.8,24.9,11.0,0000.0,0002.95,0001.19,0000.73
2023-02-25 21:54:00,,0821.7,5.00,0.00,23.1,21.8,00.0,31.8,25.0,11.1,0000.0,0002.93,0001.19,0000.74
2023-02-25 21:55:00,,0821.7,5.00,0.00,23.1,21.8,00.0,31.8,24.9,10.9,0000.0,0003.01,0001.24,0000.75
2023-02-25 21:56:00,,0821.7,5.00,0.00,23.1,21.8,00.0,31.8,24.9,11.5,0000.0,0003.16,0001.31,0000.76
2023-02-25 21:57:00,,0821.6,4.99,0.00,23.1,21.8,00.0,31.8,24.9,12.8,0000.0,0003.25,0001.32,0000.76
2023-02-25 21:58:00,,0821.7,5.00,0.00,23.1,21.8,00.0,31.8,24.9,12.8,0000.0,0003.32,0001.35,0000.76
2023-02-25 21:59:00,,0821.7,4.99,0.00,23.1,21.8,00.0,31.8,24.9,12.6,0000.0,0003.39,0001.38,0000.77
